Starlink 37146

operational
NORAD ID: 68556 Int'l Des: 2026-070 Owner: SPXS Country: US Constellation: starlink
LEOCIRCULAR

About Starlink 37146

Description loading...

Live Position

Loading 3D Globe...

Upcoming Passes

Altitude History

Altitude vs Time

uPlot chart will show altitude changes over time

Two-Line Element Set

1 68556C 26070P 26093.78937500 .00614330 00000+0 75721-3 0 930
2 68556 53.1620 260.1732 0008804 284.2482 9.2430 16.06765621 19
Epoch: Apr 3, 2026 • Age: 29 hours

Current Status

Altitude 262.9 km
Velocity 7.75 km/s
Sub-Earth Point 38.64°N, 138.32°E
Launch Date Apr 2, 2026
Age 1 days
Type internet

Technical Details

Classification Payload
Mass 575.00 kg
Dry Mass 530.00 kg
Total Mass 575.00 kg
Length 0.30 m
Diameter 4.10 m
Span 29.00 m
Shape Box + pan
Manufacturer SPXS
Bus Type Starlink V2MO
Phase Status In Orbit
Owner/State SPXS/US

Large Constellations

Loading constellations...